Powrót do katalogu

DELTA 1 DEB

AktywnyPO
NORAD 37645·DEBRIS·🇺🇸 United States

Wystrzelony Mar 5, 1978 z Vandenberg Space Force Base

Loading…

Następne Przeloty (najbliższe 24 godziny)

TLE

ŚwieżeSource: Space-Track

Epoka: Sep 13, 2026, 09:00 UTC

1 37645U 78026JG  26256.37540240  .00000108  00000-0  37175-4 0  9990
2 37645  98.7382 295.3384 0049668 219.5253 152.8087 14.54388664754318

Śledź DELTA 1 DEB w czasie rzeczywistym z AllMySat

Download on the App Store